Time,TemperatureF,DewpointF,PressureIn,WindDirection,WindDirectionDegrees,WindSpeedMPH,WindSpeedGustMPH,Humidity,HourlyPrecipIn,Conditions,Clouds,dailyrainin,SoftwareType,DateUTC
2013-05-07 00:00:00,55.1,-0.4,29.89,North,0,0.0,0.0,1,0.00,,,0.00,WUHU216HW,2013-05-07 04:00:00,
2013-05-07 00:01:00,55.1,-0.4,29.89,North,0,0.0,0.0,1,0.00,,,0.00,WUHU216HW,2013-05-07 04:01:00,
2013-05-07 00:06:00,55.1,-0.4,29.89,North,0,0.0,0.0,1,0.00,,,0.00,WUHU216HW,2013-05-07 04:06:00,
2013-05-07 00:30:00,54.2,-1.2,29.90,North,0,0.0,0.0,1,0.00,,,0.00,WUHU216HW,2013-05-07 04:30:00,
2013-05-07 00:35:00,54.2,-1.2,29.90,North,0,0.0,0.0,1,0.00,,,0.00,WUHU216HW,2013-05-07 04:35:00,
2013-05-07 00:40:00,54.2,-1.2,29.90,North,0,0.0,0.0,1,0.00,,,0.00,WUHU216HW,2013-05-07 04:40:00,
2013-05-07 01:00:00,53.6,-1.6,29.90,North,0,0.0,0.0,1,0.00,,,0.00,WUHU216HW,2013-05-07 05:00:00,
2013-05-07 01:05:00,53.6,-1.6,29.90,North,0,0.0,0.0,1,0.00,,,0.00,WUHU216HW,2013-05-07 05:05:00,
2013-05-07 01:30:00,53.3,-1.9,29.88,North,0,0.0,0.0,1,0.00,,,0.00,WUHU216HW,2013-05-07 05:30:00,
2013-05-07 01:35:00,53.3,-1.9,29.88,North,0,0.0,0.0,1,0.00,,,0.00,WUHU216HW,2013-05-07 05:35:00,
2013-05-07 02:00:00,52.7,-2.3,29.88,North,0,0.0,0.0,1,0.00,,,0.00,WUHU216HW,2013-05-07 06:00:00,
2013-05-07 02:05:00,52.7,-2.3,29.88,North,0,0.0,0.0,1,0.00,,,0.00,WUHU216HW,2013-05-07 06:05:00,
2013-05-07 02:30:00,52.4,-2.6,29.88,North,0,0.0,0.0,1,0.00,,,0.00,WUHU216HW,2013-05-07 06:30:00,
2013-05-07 02:35:00,52.4,-2.6,29.88,North,0,0.0,0.0,1,0.00,,,0.00,WUHU216HW,2013-05-07 06:35:00,
2013-05-07 03:00:00,52.0,-2.9,29.87,North,0,0.0,0.0,1,0.00,,,0.00,WUHU216HW,2013-05-07 07:00:00,
2013-05-07 03:05:00,52.0,-2.9,29.87,North,0,0.0,0.0,1,0.00,,,0.00,WUHU216HW,2013-05-07 07:05:00,
2013-05-07 03:30:00,50.8,-4.0,29.87,North,0,0.0,0.0,1,0.00,,,0.00,WUHU216HW,2013-05-07 07:30:00,
2013-05-07 03:35:00,50.8,-4.0,29.87,North,0,0.0,0.0,1,0.00,,,0.00,WUHU216HW,2013-05-07 07:35:00,
2013-05-07 04:00:00,50.2,-4.3,29.87,North,0,0.0,0.0,1,0.00,,,0.00,WUHU216HW,2013-05-07 08:00:00,
2013-05-07 04:05:00,50.2,-4.3,29.87,North,0,0.0,0.0,1,0.00,,,0.00,WUHU216HW,2013-05-07 08:05:00,
2013-05-07 04:32:00,49.3,-5.0,29.87,North,0,0.0,0.0,1,0.00,,,0.00,WUHU216HW,2013-05-07 08:32:00,
2013-05-07 04:38:00,49.3,-5.0,29.87,North,0,0.0,0.0,1,0.00,,,0.00,WUHU216HW,2013-05-07 08:38:00,
2013-05-07 05:00:00,48.2,-5.8,29.87,North,0,0.0,0.0,1,0.00,,,0.00,WUHU216HW,2013-05-07 09:00:00,
2013-05-07 05:01:00,48.2,-5.8,29.87,North,0,0.0,0.0,1,0.00,,,0.00,WUHU216HW,2013-05-07 09:01:00,
2013-05-07 05:07:00,48.2,-5.8,29.87,North,0,0.0,0.0,1,0.00,,,0.00,WUHU216HW,2013-05-07 09:07:00,
2013-05-07 05:30:00,47.9,-6.0,29.87,North,0,0.0,0.0,1,0.00,,,0.00,WUHU216HW,2013-05-07 09:30:00,
2013-05-07 05:39:00,47.9,-6.0,29.87,North,0,0.0,0.0,1,0.00,,,0.00,WUHU216HW,2013-05-07 09:39:00,
2013-05-07 06:00:00,47.9,-6.0,29.87,North,0,0.0,0.0,1,0.00,,,0.00,WUHU216HW,2013-05-07 10:00:00,
2013-05-07 06:38:00,47.7,-6.2,29.88,North,0,0.0,0.0,1,0.00,,,0.00,WUHU216HW,2013-05-07 10:38:00,
2013-05-07 07:00:00,48.1,-5.9,29.88,North,0,0.0,0.0,1,0.00,,,0.00,WUHU216HW,2013-05-07 11:00:00,
2013-05-07 07:01:00,48.1,-5.9,29.88,North,0,0.0,0.0,1,0.00,,,0.00,WUHU216HW,2013-05-07 11:01:00,
2013-05-07 07:07:00,48.1,-5.9,29.88,North,0,0.0,0.0,1,0.00,,,0.00,WUHU216HW,2013-05-07 11:07:00,
2013-05-07 07:30:00,48.6,-5.5,29.89,North,0,0.0,0.0,1,0.00,,,0.00,WUHU216HW,2013-05-07 11:30:00,
2013-05-07 08:00:00,49.3,-5.0,29.88,North,0,0.0,0.0,1,0.00,,,0.00,WUHU216HW,2013-05-07 12:00:00,
2013-05-07 08:06:00,49.3,-5.0,29.88,North,0,0.0,0.0,1,0.00,,,0.00,WUHU216HW,2013-05-07 12:06:00,
2013-05-07 08:30:00,50.4,-4.2,29.90,North,0,0.0,0.0,1,0.00,,,0.00,WUHU216HW,2013-05-07 12:30:00,
2013-05-07 08:35:00,50.4,-4.2,29.90,North,0,0.0,0.0,1,0.00,,,0.00,WUHU216HW,2013-05-07 12:35:00,
2013-05-07 09:00:00,51.7,-3.2,29.91,North,0,0.0,0.0,1,0.00,,,0.00,WUHU216HW,2013-05-07 13:00:00,
2013-05-07 09:01:00,51.7,-3.2,29.91,North,0,0.0,0.0,1,0.00,,,0.00,WUHU216HW,2013-05-07 13:01:00,
2013-05-07 09:30:00,52.6,-2.5,29.91,North,0,0.0,0.0,1,0.00,,,0.00,WUHU216HW,2013-05-07 13:30:00,
2013-05-07 09:34:00,52.6,-2.5,29.91,North,0,0.0,0.0,1,0.00,,,0.00,WUHU216HW,2013-05-07 13:34:00,
2013-05-07 10:00:00,54.0,-1.3,29.92,North,0,0.0,0.0,1,0.00,,,0.00,WUHU216HW,2013-05-07 14:00:00,
2013-05-07 10:06:00,54.0,-1.3,29.92,North,0,0.0,0.0,1,0.00,,,0.00,WUHU216HW,2013-05-07 14:06:00,
2013-05-07 10:30:00,54.7,-0.7,29.93,North,0,0.0,0.0,1,0.00,,,0.00,WUHU216HW,2013-05-07 14:30:00,
2013-05-07 10:35:00,54.7,-0.7,29.93,North,0,0.0,0.0,1,0.00,,,0.00,WUHU216HW,2013-05-07 14:35:00,
2013-05-07 11:00:00,55.8,0.1,29.93,North,0,0.0,0.0,1,0.00,,,0.00,WUHU216HW,2013-05-07 15:00:00,
2013-05-07 11:01:00,55.8,0.1,29.93,North,0,0.0,0.0,1,0.00,,,0.00,WUHU216HW,2013-05-07 15:01:00,
2013-05-07 11:06:00,55.8,0.1,29.93,North,0,0.0,0.0,1,0.00,,,0.00,WUHU216HW,2013-05-07 15:06:00,
2013-05-07 11:30:00,60.3,3.5,29.93,North,0,0.0,0.0,1,0.00,,,0.00,WUHU216HW,2013-05-07 15:30:00,
2013-05-07 12:00:00,64.4,6.7,29.92,North,0,0.0,0.0,1,0.00,,,0.00,WUHU216HW,2013-05-07 16:00:00,
2013-05-07 12:05:00,64.4,6.7,29.92,North,0,0.0,0.0,1,0.00,,,0.00,WUHU216HW,2013-05-07 16:05:00,
2013-05-07 12:30:00,65.7,26.6,29.92,North,0,0.0,0.0,23,0.00,,,0.00,WUHU216HW,2013-05-07 16:30:00,
2013-05-07 13:00:00,65.7,10.8,29.91,North,0,0.0,0.0,12,0.00,,,0.00,WUHU216HW,2013-05-07 17:00:00,
2013-05-07 13:05:00,65.7,10.8,29.91,North,0,0.0,0.0,12,0.00,,,0.00,WUHU216HW,2013-05-07 17:05:00,
2013-05-07 13:30:00,65.5,32.4,29.91,North,0,0.0,0.0,29,0.00,,,0.00,WUHU216HW,2013-05-07 17:30:00,
2013-05-07 13:35:00,65.5,32.4,29.91,North,0,0.0,0.0,29,0.00,,,0.00,WUHU216HW,2013-05-07 17:35:00,
2013-05-07 14:00:00,67.7,35.9,29.90,North,0,0.0,0.0,31,0.00,,,0.00,WUHU216HW,2013-05-07 18:00:00,
2013-05-07 14:05:00,67.7,35.9,29.90,North,0,0.0,0.0,31,0.00,,,0.00,WUHU216HW,2013-05-07 18:05:00,
2013-05-07 14:30:00,69.1,53.2,29.89,North,0,0.0,0.0,57,0.00,,,0.00,WUHU216HW,2013-05-07 18:30:00,
2013-05-07 14:35:00,69.1,53.2,29.89,North,0,0.0,0.0,57,0.00,,,0.00,WUHU216HW,2013-05-07 18:35:00,
2013-05-07 15:00:00,67.9,52.0,29.89,North,0,0.0,0.0,57,0.00,,,0.00,WUHU216HW,2013-05-07 19:00:00,
2013-05-07 15:05:00,67.9,52.0,29.89,North,0,0.0,0.0,57,0.00,,,0.00,WUHU216HW,2013-05-07 19:05:00,
2013-05-07 15:30:00,70.2,54.7,29.88,North,0,0.0,0.0,58,0.00,,,0.00,WUHU216HW,2013-05-07 19:30:00,
2013-05-07 15:35:00,70.2,54.7,29.88,North,0,0.0,0.0,58,0.00,,,0.00,WUHU216HW,2013-05-07 19:35:00,
2013-05-07 16:00:00,70.7,54.7,29.88,North,0,0.0,0.0,57,0.00,,,0.00,WUHU216HW,2013-05-07 20:00:00,
2013-05-07 16:05:00,70.7,54.7,29.88,North,0,0.0,0.0,57,0.00,,,0.00,WUHU216HW,2013-05-07 20:05:00,
2013-05-07 16:30:00,69.1,49.8,29.88,North,0,0.0,0.0,50,0.00,,,0.00,WUHU216HW,2013-05-07 20:30:00,
2013-05-07 16:35:00,69.1,49.8,29.88,North,0,0.0,0.0,50,0.00,,,0.00,WUHU216HW,2013-05-07 20:35:00,
2013-05-07 17:00:00,67.9,51.6,29.88,North,0,0.0,0.0,56,0.00,,,0.00,WUHU216HW,2013-05-07 21:00:00,
2013-05-07 17:05:00,67.9,51.6,29.88,North,0,0.0,0.0,56,0.00,,,0.00,WUHU216HW,2013-05-07 21:05:00,
2013-05-07 17:30:00,66.6,51.8,29.89,North,0,0.0,0.0,59,0.00,,,0.00,WUHU216HW,2013-05-07 21:30:00,
2013-05-07 17:35:00,66.6,51.8,29.89,North,0,0.0,0.0,59,0.00,,,0.00,WUHU216HW,2013-05-07 21:35:00,
2013-05-07 18:00:00,67.0,51.7,29.89,North,0,0.0,0.0,58,0.00,,,0.00,WUHU216HW,2013-05-07 22:00:00,
2013-05-07 18:05:00,67.0,51.7,29.89,North,0,0.0,0.0,58,0.00,,,0.00,WUHU216HW,2013-05-07 22:05:00,
2013-05-07 18:30:00,65.7,50.1,29.89,North,0,0.0,0.0,57,0.00,,,0.00,WUHU216HW,2013-05-07 22:30:00,
2013-05-07 18:35:00,65.7,50.1,29.89,North,0,0.0,0.0,57,0.00,,,0.00,WUHU216HW,2013-05-07 22:35:00,
2013-05-07 19:00:00,63.9,47.4,29.90,North,0,0.0,0.0,55,0.00,,,0.00,WUHU216HW,2013-05-07 23:00:00,
2013-05-07 19:05:00,63.9,47.4,29.90,North,0,0.0,0.0,55,0.00,,,0.00,WUHU216HW,2013-05-07 23:05:00,
2013-05-07 19:30:00,62.5,33.5,29.91,North,0,0.0,0.0,34,0.00,,,0.00,WUHU216HW,2013-05-07 23:30:00,
2013-05-07 19:35:00,62.5,33.5,29.91,North,0,0.0,0.0,34,0.00,,,0.00,WUHU216HW,2013-05-07 23:35:00,
2013-05-07 20:00:00,59.8,3.1,29.92,North,0,0.0,0.0,8,0.00,,,0.00,WUHU216HW,2013-05-08 00:00:00,
2013-05-07 20:05:00,59.8,3.1,29.92,North,0,0.0,0.0,8,0.00,,,0.00,WUHU216HW,2013-05-08 00:05:00,
2013-05-07 20:30:00,58.5,2.1,29.93,North,0,0.0,0.0,3,0.00,,,0.00,WUHU216HW,2013-05-08 00:30:00,
2013-05-07 20:35:00,58.5,2.1,29.93,North,0,0.0,0.0,3,0.00,,,0.00,WUHU216HW,2013-05-08 00:35:00,
2013-05-07 21:00:00,58.0,1.6,29.94,North,0,0.0,0.0,2,0.01,,,0.00,WUHU216HW,2013-05-08 01:00:00,
2013-05-07 21:05:00,58.0,1.6,29.94,North,0,0.0,0.0,2,0.01,,,0.00,WUHU216HW,2013-05-08 01:05:00,
2013-05-07 21:30:00,56.9,0.8,29.95,North,0,0.0,0.0,1,0.02,,,0.02,WUHU216HW,2013-05-08 01:30:00,
2013-05-07 21:35:00,56.9,0.8,29.95,North,0,0.0,0.0,1,0.02,,,0.02,WUHU216HW,2013-05-08 01:35:00,
2013-05-07 22:00:00,56.0,0.2,29.95,North,0,0.0,0.0,1,0.01,,,0.02,WUHU216HW,2013-05-08 02:00:00,
2013-05-07 22:05:00,56.0,0.2,29.95,North,0,0.0,0.0,1,0.01,,,0.02,WUHU216HW,2013-05-08 02:05:00,
2013-05-07 22:30:00,54.5,-0.9,29.95,North,0,0.0,0.0,1,0.00,,,0.02,WUHU216HW,2013-05-08 02:30:00,
2013-05-07 22:35:00,54.5,-0.9,29.95,North,0,0.0,0.0,1,0.00,,,0.02,WUHU216HW,2013-05-08 02:35:00,
2013-05-07 23:00:00,55.1,-0.4,29.95,North,0,0.0,0.0,1,0.00,,,0.02,WUHU216HW,2013-05-08 03:00:00,
2013-05-07 23:05:00,55.1,-0.4,29.95,North,0,0.0,0.0,1,0.00,,,0.02,WUHU216HW,2013-05-08 03:05:00,
2013-05-07 23:30:00,54.4,-1.1,29.96,North,0,0.0,0.0,1,0.00,,,0.02,WUHU216HW,2013-05-08 03:30:00,
2013-05-07 23:35:00,54.4,-1.1,29.96,North,0,0.0,0.0,1,0.00,,,0.02,WUHU216HW,2013-05-08 03:35:00,